Yeovilton, United Kingdom

10:08 AM BST on May 27, 2017 (GMT +0100)
Yeovil Radar Navy

Weather History for EGDY - May, 2013

Change the Weather History Date:

Thursday, May 2, 2013

  Actual Average Record
Temperature  
Mean Temperature 48 °F -  
Max Temperature 62 °F 60 °F 73 °F (1997)
Min Temperature 35 °F 44 °F 35 °F (2002)
Degree Days  
Heating Degree Days 16    
Moisture  
Dew Point 37 °F    
Average Humidity 62    
Maximum Humidity 93    
Minimum Humidity 28    
Precipitation  
Precipitation 0.00 in - - ()
Sea Level Pressure  
Sea Level Pressure 30.21 in    
Wind  
Wind Speed 5 mph ()    
Max Wind Speed 14 mph    
Max Gust Speed -    
Visibility 14.7 miles    
Events Fog    
Averages and records for this station are not official NWS values.
T = Trace of Precipitation, MM = Missing Value Source: Averaged Metar Reports

Daily Weather History Graph

Daily Weather History Graph

Search for Another Location

Airport or City:

Trip Planner

Search our weather history database for the weather conditions in past years. The results will help you decide how hot, cold, wet, or windy it might be!

Date:

Astronomy

May. 02, 2013 Rise Set
Actual Time 5:41 AM BST 8:34 PM BST
Civil Twilight 5:04 AM BST 9:12 PM BST
Nautical Twilight 4:15 AM BST 10:01 PM BST
Astronomical Twilight 3:15 AM BST 11:02 PM BST
Moon 2:10 AM BST (5/2) 12:18 PM BST (5/2)
Length of Visible Light 16h 07m
Length of Day
14h 52m
Waning Gibbous, 50% of the Moon is Illuminated
May 2
Waning Gibbous
May 2
Last Quarter
May 10
New
May 18
First Quarter
May 25
Full

Hourly Weather History & Observations

Time (BST) Temp. Windchill Dew Point Humidity Pressure Visibility Wind Dir Wind Speed Gust Speed Precip Events Conditions
12:50 AM 42 °F - 39 °F 83% 30.24 in 12 mi North 3.5 mph - -  
12:50 AM 41.0 °F 39.0 °F 39.2 °F 93% 30.21 in - North 3.5 mph - N/A   Clear
1:50 AM 42.8 °F 40.1 °F 37.4 °F 81% 30.21 in - NNE 4.6 mph - N/A   Clear
2:50 AM 41.0 °F 38.0 °F 35.6 °F 81% 30.21 in - North 4.6 mph - N/A   Clear
3:50 AM 40 °F - 36 °F 79% 30.22 in 12 mi WNW 1.2 mph - -   Scattered Clouds
3:50 AM 39.2 °F - 35.6 °F 87% 30.21 in - WNW 1.2 mph - N/A   Clear
4:50 AM 39.2 °F - 35.6 °F 87% 30.21 in - WSW 1.2 mph - N/A   Clear
5:50 AM 37.4 °F - 35.6 °F 93% 30.21 in 6.2 mi South 2.3 mph - N/A Fog Shallow Fog
6:50 AM 39 °F - 36 °F 86% 30.23 in 16 mi WSW 3.5 mph - -   Clear
6:50 AM 39.2 °F 37.0 °F 35.6 °F 87% 30.21 in - WSW 3.5 mph - N/A   Clear
7:50 AM 44.6 °F 42.2 °F 39.2 °F 81% 30.24 in - West 4.6 mph - N/A   Clear
8:50 AM 50.0 °F - 39.2 °F 66% 30.24 in - North 6.9 mph - N/A   Clear
9:50 AM 52 °F - 39 °F 51% 30.25 in 16 mi NNE 6.9 mph - -   Clear
9:50 AM 51.8 °F - 39.2 °F 62% 30.24 in - NNE 6.9 mph - N/A   Clear
10:50 AM 55.4 °F - 35.6 °F 47% 30.24 in - NE 5.8 mph - N/A   Clear
11:50 AM 57.2 °F - 35.6 °F 44% 30.21 in - NNE 9.2 mph - N/A   Clear
12:50 PM 60 °F - 36 °F 29% 30.22 in 19 mi ENE 8.1 mph - -   Scattered Clouds
12:50 PM 59.0 °F - 35.6 °F 42% 30.21 in - ENE 8.1 mph - N/A   Clear
1:50 PM 60.8 °F - 37.4 °F 42% 30.21 in - NE 5.8 mph - N/A   Clear
2:50 PM 59.0 °F - 33.8 °F 39% 30.21 in - North 9.2 mph - N/A   Clear
3:50 PM 60 °F - 36 °F 29% 30.20 in 16 mi NW 10.4 mph - -   Partly Cloudy
3:50 PM 60.8 °F - 35.6 °F 39% 30.18 in - NW 10.4 mph - N/A   Clear
4:50 PM 60.8 °F - 37.4 °F 42% 30.18 in - NW 10.4 mph - N/A   Clear
5:50 PM 60.8 °F - 35.6 °F 39% 30.18 in - NW 13.8 mph - N/A   Clear
6:50 PM 59 °F - 35 °F 28% 30.19 in 19 mi NW 10.4 mph - -   Scattered Clouds
6:50 PM 59.0 °F - 35.6 °F 42% 30.18 in - NW 10.4 mph - N/A   Clear
7:50 PM 53.6 °F - 37.4 °F 54% 30.18 in - WNW 5.8 mph - N/A   Clear
8:50 PM 50.0 °F - 33.8 °F 54% 30.18 in - WNW 3.5 mph - N/A   Clear
9:50 PM 46 °F - 37 °F 63% 30.22 in 16 mi WNW 1.2 mph - -   Clear
9:50 PM 46.4 °F - 37.4 °F 71% 30.21 in - WNW 1.2 mph - N/A   Clear
10:50 PM 44.6 °F 43.1 °F 37.4 °F 76% 30.21 in - WNW 3.5 mph - N/A   Clear
11:50 PM 42.8 °F - 35.6 °F 76% 30.18 in - South 2.3 mph - N/A   Clear